ONEWEB-0288, 49078

Orbit data source: Space-Track

ONEWEB-0288, 49078 is a payload satellite owned by One Web (NAA) (UK) in LEO that was launched on Sat, 21 Aug 2021 UTC via a SOYUZ-2-1B launch vehicle from the Tyuratam Missile And Space Complex (TTMTR). Payload-class satellites include a variety of spacecraft equipped with specific instruments for various scientific and technological missions. These include communications satellites like Starlink; space stations such as the ISS; scientific satellites like the Hubble; Earth observation satellites from companies like Planet Labs, Umbra, and HawkEye 360; GPS; miniature CubeSats for education and research; and military/defense satellites.

Loading next visibility...
Identifier
49078, 2021-075D
Orbit
LEO
Country
Flag of UKUK
Related business
Manufacturer
One Web
Mission
Operational Commercial Communications
Bus & Motor
ARROW, Unknown motor
Mass
148 kg wet, ~140 kg dry
Launch date (UTC)
2021-08-21 (5 years ago)
Launch vehicle
SOYUZ-2-1B
Launch site
Tyuratam Missile And Space Complex (TTMTR)
Object type
Payload
Rocket body
Debris
Shape & HBR
Trap Box + 2 Pan, 6.7 m
Radar Cross Section
3.464 m², Medium (>0.1 m² and < 1m²)

Expand to show TLE details & history
Last TLE update: 9 hours ago

TLE from 9 hours ago
0 ONEWEB-0288
1 49078U 21075D   26130.12887880 -.00000295  00000-0 -85572-3 0  9995
2 49078  87.8977 358.2213 0001656  90.0793 270.0525 13.12444327230193
Epoch: 2026-05-10T03:05Z
TLE epoch observation values (Epoch: 2026-05-10T03:05:35.128Z)
Latitude
-0.00004°
Longitude
83.88853°
Altitude
1,216.608 km
Speed
7.246 km/s
True Right ascension
23h 52m 53s
True Declination
0° 00' 00"
Sunlit
Object was in daylight at epoch
Visualization orbit readout
Latitude
Unknown
Longitude
Unknown
Altitude
Unknown
Speed
Unknown
Apparent Right ascension
Unknown
Apparent Declination
Unknown
Sunlit
N/A
Visualization observer readout
Local Sidereal Time
20:36:22
Azimuth
Unknown
Elevation
Unknown
Doppler factor
Unknown
Orbital elements
Apogee altitude
1,212.092 km
Perigee altitude
1,209.578 km
Semi-major axis
7,588.972 km
Eccentricity
0.00017
Inclination
87.8977°
RAAN
358.2213°
Arg. of periapsis
90.0793°
True anomaly
270.03352°
Mean anomaly
270.0525°
Eccentric anomaly
270.04301°
Mean motion
3.28298 °/min
Orbital period
109.66 mins
BSTAR
-0.00085572
Loading maneuver chart data...
Computing Atmospheric mass density...
Loading historical data...
Loading historical data...
Loading historical data...
Loading historical data...
Loading historical data...
Loading historical data...
Loading historical data...

Documentation

Showing up to 5 results
|